CW0526 Weather Reports


time (UTC)temp
F
wind
direction
speed
knots
gust
knots
rain 1hr
in
rain 24hr
in
rain mn
in
humidity
%
barometer
mb
20260508013602 48 160 0.0 4.3 0.00 0.20 0.03 85 1012.3
20260508013103 48 164 0.9 6.1 0.00 0.20 0.03 85 1012.3
20260508011102 48 168 1.7 7.0 0.01 0.20 0.03 85 1012.2
20260508010602 48 176 2.6 5.2 0.02 0.20 0.03 85 1012.3
20260508004602 48 179 3.5 7.0 0.03 0.20 0.03 84 1012.2
20260508003602 48 164 2.6 5.2 0.03 0.20 0.03 84 1012.2
20260508001602 48 160 0.9 5.2 0.02 0.19 0.02 83 1012.3
20260508000602 49 179 1.7 4.3 0.02 0.18 0.02 82 1012.4
20260507234102 49 168 4.3 8.7 0.00 0.17 0.00 80 1012.2
20260507233602 49 200 2.6 7.8 0.00 0.17 0.00 80 1012.1
20260507231102 49 158 4.3 8.7 0.00 0.17 0.00 80 1011.9
20260507230602 49 174 3.5 10.4 0.00 0.17 0.00 80 1011.9
20260507223603 49 153 3.5 7.8 0.00 0.17 0.17 80 1012.0
20260507223103 49 180 2.6 10.4 0.00 0.17 0.17 80 1012.0
20260507220104 49 175 4.3 12.2 0.00 0.17 0.17 80 1011.7
20260507213103 49 123 4.3 13.0 0.00 0.17 0.17 81 1011.6
20260507210104 50 178 5.2 10.4 0.00 0.17 0.17 80 1011.7
20260507204102 50 182 2.6 7.0 0.00 0.17 0.17 79 1011.7
20260507203602 50 172 4.3 13.0 0.00 0.17 0.17 78 1011.6
20260507201603 51 169 0.9 5.2 0.00 0.17 0.17 77 1011.6
20260507193104 52 156 1.7 7.8 0.00 0.17 0.17 74 1011.2
20260507191603 52 187 2.6 7.0 0.00 0.17 0.17 73 1011.1
20260507184602 54 170 5.2 10.4 0.00 0.17 0.17 70 1011.0
20260507183104 53 178 4.3 10.4 0.00 0.17 0.17 70 1011.0
20260507174602 54 181 2.6 6.1 0.00 0.17 0.17 66 1011.1
20260507174103 54 167 2.6 6.1 0.00 0.17 0.17 67 1011.1
20260507173603 54 164 2.6 5.2 0.00 0.17 0.17 67 1011.1
20260507173104 54 153 1.7 10.4 0.00 0.17 0.17 66 1011.2
20260507164103 56 178 5.2 12.2 0.00 0.17 0.17 62 1011.4
20260507161602 57 173 2.6 10.4 0.00 0.17 0.17 66 1011.3
20260507161102 57 175 4.3 7.8 0.00 0.17 0.17 66 1011.3
20260507160603 58 178 4.3 10.4 0.00 0.17 0.17 65 1011.3
20260507160104 58 295 2.6 10.4 0.00 0.17 0.17 66 1011.3
20260507151103 57 172 5.2 13.9 0.00 0.17 0.17 74 1011.3
20260507150105 56 124 5.2 13.0 0.00 0.17 0.17 74 1011.4
20260507144103 54 170 4.3 13.9 0.00 0.17 0.17 77 1011.7
20260507141103 54 193 5.2 11.3 0.00 0.17 0.17 78 1011.7
20260507140104 54 90 4.3 14.8 0.00 0.17 0.17 78 1011.7
20260507134603 54 169 2.6 12.2 0.00 0.17 0.17 80 1011.7
20260507131102 52 158 3.5 7.8 0.03 0.17 0.17 85 1011.8
20260507130602 52 182 4.3 10.4 0.03 0.17 0.17 85 1011.9
20260507130104 51 171 3.5 10.4 0.06 0.17 0.17 85 1011.9
20260507124102 50 175 4.3 7.8 0.17 0.17 0.17 84 1012.1
20260507123603 50 170 4.3 10.4 0.17 0.17 0.17 84 1012.1
20260507120603 50 170 2.6 6.1 0.13 0.13 0.13 81 1012.2
20260507120104 51 146 3.5 14.8 0.11 0.11 0.11 81 1012.2
20260507114602 52 184 6.1 18.2 0.00 0.00 0.00 79 1012.1
20260507111102 53 153 7.8 14.8 0.00 0.00 0.00 78 1012.0
20260507104103 52 143 5.2 12.2 0.00 0.00 0.00 79 1012.3
20260507103602 52 165 6.1 12.2 0.00 0.00 0.00 79 1012.3
20260507103104 52 118 7.8 17.4 0.00 0.00 0.00 78 1012.3
20260507101603 52 171 6.1 13.0 0.00 0.00 0.00 79 1012.4
20260507101103 52 178 7.0 17.4 0.00 0.00 0.00 79 1012.3
20260507094103 50 173 6.1 11.3 0.00 0.00 0.00 79 1012.2
20260507093104 50 96 5.2 13.0 0.00 0.00 0.00 80 1012.3
20260507091603 49 159 6.1 17.4 0.00 0.00 0.00 81 1012.2
20260507091103 49 179 5.2 13.0 0.00 0.00 0.00 81 1012.3
20260507084603 49 156 6.1 11.3 0.00 0.00 0.00 81 1012.2
20260507084103 49 131 5.2 10.4 0.00 0.00 0.00 80 1012.3
20260507083603 49 176 4.3 11.3 0.00 0.00 0.00 80 1012.2
20260507080603 50 147 6.1 12.2 0.00 0.00 0.00 79 1012.2
20260507074603 49 150 6.1 13.9 0.00 0.00 0.00 80 1012.3
20260507074103 49 172 6.1 13.9 0.00 0.00 0.00 80 1012.2
20260507071103 48 165 4.3 8.7 0.00 0.00 0.00 80 1012.2
20260507070603 48 179 7.0 12.2 0.00 0.00 0.00 80 1012.2
20260507070105 48 181 7.8 14.8 0.00 0.00 0.00 80 1012.2
20260507064103 48 141 7.8 13.9 0.00 0.00 0.00 80 1012.2
20260507063603 47 171 5.2 10.4 0.00 0.00 0.00 80 1012.2
20260507063104 47 162 5.2 13.9 0.00 0.00 0.00 80 1012.2
20260507061603 47 177 5.2 11.3 0.00 0.00 0.00 80 1012.3
20260507061104 47 177 6.1 17.4 0.00 0.00 0.00 81 1012.2
20260507060603 47 140 5.2 13.0 0.00 0.00 0.00 81 1012.2
20260507060104 46 181 4.3 14.8 0.00 0.00 0.00 81 1012.2
20260507054103 46 178 7.0 14.8 0.00 0.00 0.00 81 1012.1
20260507053105 46 207 6.1 14.8 0.00 0.00 0.00 81 1012.1
20260507051603 45 179 7.8 13.9 0.00 0.00 0.00 81 1012.1
20260507044603 45 160 7.8 15.6 0.00 0.00 0.00 81 1012.2
20260507044103 45 176 7.8 15.6 0.00 0.00 0.00 80 1012.2
20260507043604 45 173 6.1 13.0 0.00 0.00 0.00 80 1012.2
20260507034604 45 174 5.2 11.3 0.00 0.00 0.00 79 1012.3
20260507034104 45 182 5.2 17.4 0.00 0.00 0.00 79 1012.3
20260507031604 45 176 4.3 12.2 0.00 0.00 0.00 78 1012.6
20260507030605 45 152 3.5 7.8 0.00 0.00 0.00 77 1012.7
20260507030104 45 152 4.3 12.2 0.00 0.00 0.00 77 1012.7
20260507024603 45 171 6.1 10.4 0.00 0.00 0.00 77 1012.7
20260507024104 45 183 5.2 12.2 0.00 0.00 0.00 76 1012.8
20260507023603 45 178 5.2 11.3 0.00 0.00 0.00 76 1012.8
20260507023104 45 181 5.2 11.3 0.00 0.00 0.00 76 1012.8
20260507021103 46 182 4.3 12.2 0.00 0.00 0.00 75 1012.9
20260507020105 45 161 5.2 10.4 0.00 0.00 0.00 75 1013.0
20260507014603 45 164 2.6 11.3 0.00 0.00 0.00 74 1013.0
20260507014103 45 170 2.6 10.4 0.00 0.00 0.00 74 1013.0